sat.trackr.live / text

‹ back to catalog

STARLINK-11169 [DTC]

NORAD 60064 · 2024-113F

PAYLOAD ACTIVE UNKNOWN

§ Identity

Operator
Country
US
Launch date
2024-06-19
Launch site
AFWTR
Launch vehicle
Mass (kg)
RCS (m²)

Purposes: comms

External: N2YO · Heavens-Above · Gunter

§ Orbital elements

Epoch: 2026-09-21T09:52:41.396736Z

Period
91.74 min
Inclination
53.1586°
Eccentricity
0.0001039
Mean motion
15.69700751 rev/d
Perigee alt
359.1 km
Apogee alt
360.5 km
Semi-major
6,737.9 km
B*
-5.9757e-6
RAAN
306.2199°
Arg perigee
79.9137°
Mean anomaly
280.1998°
Rev number
13,030

§ Raw data

STARLINK-11169 [DTC]1 60064U 24113F   26264.41159024 -.00001312  00000+0 -59757-5 0  99992 60064  53.1586 306.2199 0001039  79.9137 280.1998 15.69700751130300

JSON: /api/v1/satellites/60064 · /tle

For live sub-satellite position, see the globe view (requires WebGL).

§ Visibility from observer

Set your observer location to see the next 7 days of passes ≥ 10°. The values pass through the URL so the page stays shareable.

No JS? Fill the form by hand. The geolocation button needs JavaScript.